COSMOS 249 DEB *, 6176

Orbit data source: Space-Track

COSMOS 249 DEB *, 6176 is space debris in LEO originally from a launch on Sun, 20 Oct 1968 UTC launched from the Tyuratam Missile And Space Complex (TTMTR). Debris objects in space refer to the collection of defunct objects orbiting the Earth. Examples of debris include non-operational satellites, rocket bodies, and fragments generated from explosions, collisions, or faulty payload assembly.

Loading next visibility...
Identifier
6176, 1968-091CG
Orbit
LEO
Country
Flag of CISCIS
Related business
Manufacturer
Unknown
Mission
Spacecraft
Bus & Motor
Unknown
Mass
Unknown
Launch date (UTC)
1968-10-20 (57 years ago)
Launch vehicle
Unknown
Launch site
Tyuratam Missile And Space Complex (TTMTR)
Object type
Payload
Rocket body
Debris
Shape & HBR
Unknown shape, 0.1 m
Radar Cross Section
Small (<0.1 m²)

Expand to show TLE details & history
Last TLE update: 22 hours ago

TLE from 22 hours ago
0 COSMOS 249 DEB *
1 06176U 68091CG  25340.39529284  .00000671  00000-0  13024-2 0  9996
2 06176  65.7265 295.8186 0458444 122.4415 242.1811 13.08322115133967
Epoch: 2025-12-06T09:29Z
TLE epoch observation values (Epoch: 2025-12-06T09:29:13.301Z)
Latitude
-0°
Longitude
78.08953°
Altitude
1,406.47 km
Speed
7.075 km/s
True Right ascension
19h 43m 16s
True Declination
0° 00' 00"
Sunlit
Object was in daylight at epoch
Visualization orbit readout
Latitude
Unknown
Longitude
Unknown
Altitude
Unknown
Speed
Unknown
Apparent Right ascension
Unknown
Apparent Declination
Unknown
Sunlit
N/A
Visualization observer readout
Local Sidereal Time
05:04:09
Azimuth
Unknown
Elevation
Unknown
Doppler factor
Unknown
Orbital elements
Apogee altitude
1,576.939 km
Perigee altitude
879.521 km
Semi-major axis
7,606.367 km
Eccentricity
0.04584
Inclination
65.7265°
RAAN
295.8186°
Arg. of periapsis
122.4415°
True anomaly
237.66069°
Mean anomaly
242.1811°
Eccentric anomaly
239.90842°
Mean motion
3.27173 °/min
Orbital period
110.03 mins
BSTAR
0.0013024
Loading maneuver chart data...
Computing Atmospheric mass density...

Documentation

Showing up to 5 results
|